Погода в Норовке

Россия / Орловская область     52°13′39″N   37°47′56″E
темп.,
°C
ветер,
м/с
пор.,
м/с
влажн.,
%
обл.,
%
осадки,
мм/ч
давл.,
гПа
погр.,
м
14 апреля, ср
ср1400:00+12ююв498498 0.0 1021302
03:00+10ююв3593100 0.0 1021114
06:00+9ююв33939 0.0 102053
09:00+14юв247164 0.0 1020464
12:00+17юв454391 0.0 10181205
15:00+19юв462990 0.0 10172233
18:00+17юв5934100 0.0 1016441
21:00+14вюв224084 0.0 101625
15 апреля, чт
чт1500:00+12в3346100 0.0 101531
03:00+11в3353100 0.0 101548
06:00+11ююв1163100 0.0 101424
09:00+14в4956100 0.0 1015772
12:00+15всв475090 0.1 10141129
15:00+18юв5741100 0.1 10132253
18:00+14всв346168 0.1 101395
21:00+12ююв11757 0.6 101414
16 апреля, пт
пт1600:00+11юв227753 0.0 101418
03:00+10ю358070 0.0 101584
06:00+9вюв2282100 0.2 101527
09:00+12ююв3770100 0.4 1016398
12:00+16ююв5753100 1.4 10161416
15:00+17юв584297 1.7 10162399
18:00+16ю464756 0.0 1016589
21:00+11зюз33635 0.0 101842
17 апреля, сб
сб1700:00+10сз226499 0.0 101937
03:00+9ссв4673100 0.0 1019116
06:00+9св3792100 0.3 1018182
09:00+11всв687999 1.1 1019735
12:00+14в71267100 0.1 10191379
15:00+15всв81361100 1.9 10181798
18:00+11вюв4885100 2.3 1020542
21:00+9в61192100 10.1 1021801
18 апреля, вс
вс1800:00+9юв488969 0.4 1022636
03:00+6ююв259236 0.4 1023233
06:00+5зюз00935 0.0 102410
09:00+9всв34736 0.0 1025607
12:00+12всв556479 0.3 10251247
15:00+9всв677573 0.8 1025667
18:00+9всв6783100 0.0 1026649
21:00+7всв5788100 0.4 1026487